Location: Brachbach
(49.1847°N, 9.7240°E)
Time: 10:43:31
(UTC+00:00)

COSMOS 860 DEB - Pass Details

Date: 07 October 2024
Orbit: 890 x 988 km, 64.7° (Epoch: 09 November)

Event Time Altitude Azimuth Distance (km) Brightness Sun altitude
Rises 21:17:06 0° 316° (NW) 3,672 ? -40.8°
Reaches altitude 10° 21:19:50 10° 308° (NW) 2,732 ? -41.0°
Enters shadow 21:22:43 25° 290° (WNW) 1,891 ? -41.3°
